Location: Newark
(12.4436°N, 0.6167°W)
Time: 19:51:10
(UTC+00:00)

Vanguard 1 - Pass Details

Date: 14 December 2019
Orbit: 651 x 3833 km, 34.2° (Epoch: 24 January)

Event Time Altitude Azimuth Distance (km) Brightness Sun altitude
Rises 21:28:00 0° 189° (S) 4,786 13.8 -53.0°
Reaches altitude 10° 21:32:26 10° 169° (S) 4,329 13.4 -54.0°
Enters shadow 21:32:48 11° 168° (SSE) 4,311 13.3 -54.1°
Maximum altitude 21:40:04 18° 131° (SE) 4,531 - -55.7°
Drops below altitude 10° 21:50:19 10° 95° (E) 6,074 - -58.0°
Sets 21:58:33 0° 80° (E) 7,608 - -59.9°
